Погода в Краснозёрском

Россия / Новосибирская область     53°59′01″N   79°14′18″E
темп.,
°C
ветер,
м/с
пор.,
м/с
влажн.,
%
обл.,
%
осадки,
мм/ч
давл.,
гПа
погр.,
м
8 марта, пн
пн801:00−5ю7149491 0.0 1017358
04:00−5ю71591100 0.0 1014390
07:00−5ю71590100 0.0 1012373
10:00−5ю81588100 0.0 1009376
13:00−3ююз91585100 0.0 1006551
16:00−1юз81489100 0.0 1006952
19:00−3зсз91295100 1.3 1009613
22:00−11з5119269 0.1 1015227
9 марта, вт
вт901:00−15зюз499435 0.1 1020155
04:00−17юз479433 0.0 1022125
07:00−17ююз5109424 0.0 1024156
10:00−15ююз7129061 0.0 1024306
13:00−11ююз7138462 0.0 1024454
16:00−8ююз7128317 0.0 1023536
19:00−10ююз5118731 0.0 1022311
22:00−13ююз511900 0.0 1021201
10 марта, ср
ср1001:00−13ююз5128717 0.0 1020222
04:00−15ююз489047 0.0 1019131
07:00−14ююз368974 0.0 1018100
10:00−11ю4687100 0.0 1017169
13:00−7ююв4686100 0.0 1015257
16:00−5юв5892100 0.0 1010344
19:00−2ююв61393100 0.1 1005724
22:00+1ю81599100 1.3 1000551
11 марта, чт
чт1101:00+2ююз816100100 1.6 999610
04:00−7зюз10159099 0.3 1002713
07:00−11зюз71492100 0.3 1008438
10:00−11юз71394100 0.0 1010369
13:00−8юз71291100 0.1 1011641
16:00−6юз91385100 0.1 1013927
19:00−8юз61386100 0.1 1015633
22:00−9ююз6138729 0.0 1015460
12 марта, пт
пт1201:00−8ю8168465 0.1 1012565
04:00−8зюз91387100 1.3 1012902
07:00−16зюз7159091 1.3 1015529
10:00−17юз8149298 0.0 1018544
13:00−16зюз8119199 0.1 1020626
16:00−15зюз71189100 0.1 1021759
19:00−16зюз61191100 0.1 1022668
22:00−21з3699100 0.0 1025103